Regional Weather Roundup
Issued by NWS

Home | Current Version | Previous Version | Graphics & Text | Print | Product List | Glossary On
Versions: 1 2 3 4 5 6 7 8 9 10 11 12 13 14 15 16 17 18 19 20 21 22 23 24 25 26 27 28 29 30 31 32 33 34 35 36 37 38 39 40 41 42 43 44 45 46 47 48 49 50
000
ASUS43 KLOT 241304
RWRIL

ILLINOIS REGIONAL WEATHER ROUNDUP
NATIONAL WEATHER SERVICE CHICAGO/ROMEOVILLE IL
800 AM CDT SAT JUN 24 2017

NOTE: "FAIR" INDICATES FEW OR NO CLOUDS BELOW 12,000 FEET WITH NO
SIGNIFICANT WEATHER AND/OR OBSTRUCTIONS TO VISIBILITY.

* THESE STATIONS ARE NOT UNDER NWS QUALITY CONTROL. THEY ALSO MAY NOT
  REPORT WEATHER SUCH AS PRECIPITATION OR FOG.

ILZ001-002-007-009-015-016-024-241400-
NORTHWEST ILLINOIS

CITY           SKY/WX    TMP DP  RH WIND       PRES   REMARKS
MOLINE         SUNNY     64  50  60 NW14G22   30.02R
SAVANNA*       MOSUNNY   63  53  69 NW12      30.00R
$$

ILZ003-004-008-010-011-017-018-241400-
NORTH CENTRAL ILLINOIS

CITY           SKY/WX    TMP DP  RH WIND       PRES   REMARKS
ROCKFORD       SUNNY     65  54  67 NW14      29.96R
FREEPORT*      SUNNY     62  53  73 NW9       29.99R
ROCHELLE*      SUNNY     62  55  78 W10       29.98R
DE KALB*       SUNNY     63  56  78 W12       29.97R
PERU*          SUNNY     62  55  79 NW12G17   30.00R
$$

ILZ005-006-012>014-019>023-241400-
NORTHEAST ILLINOIS

CITY           SKY/WX    TMP DP  RH WIND       PRES   REMARKS
CHICAGO-OHARE  MOSUNNY   66  55  67 NW13      29.92R
CHICAGO-MIDWAY MOSUNNY   66  56  70 NW12      29.93R
AURORA         SUNNY     64  57  78 W15G21    29.96R
LANSING*       SUNNY     66  55  67 NW8       29.94R
JOLIET*        SUNNY     66  58  75 W8        29.96R
WAUKEGAN       MOSUNNY   65  56  72 NW9       29.91R
DUPAGE AIRPORT SUNNY     64  57  78 NW12      29.94R
WHEELING       SUNNY     65  57  75 NW8       29.93R
MORRIS*        SUNNY     64  56  76 NW17G24   29.96R
ROMEOVILLE*    SUNNY     65  55  69 NW13      29.96R
NORTHERLY ISL    N/A     65  53  65 W9          N/A
$$

LMZ740>746-241400-
SOUTHERN LAKE MICHIGAN

STATION/POSITION SKY/WX   TEMP    WIND        PRES    VSBY  WAVE
                          AIR SEA DIR/SP/G                  HT/PER
                          (F)     (DEG/KT/KT) (MB)    (MI)  (FT/S)
SOUTHERN BUOY              62 61  320/ 14/ 16 1011.2          2/ 4
WILMETTE HARBOR            63 64  280/ 12/ 16   N/A           1/ 2
HARRISON CRIB              65     300/ 13/ 15   N/A
BURNHAM HARBOR             66                   N/A
CALUMET HARBOR             65     280/  6/ 10 1012.7R
BURNS HARBOR               64     280/ 11/ 13 1013.9R
MICHIGAN CITY              65     270/ 15/ 17   N/A
MICHIGAN CITY 6N           65 68  290/ 12/ 17   N/A           3/ 4
ST. JOSEPH                 64 68  330/ 14/ 17 1012.6R         4/ 4
$$

ILZ025>027-034>036-040-047-049-050-058-095>099-241400-
WEST-CENTRAL ILLINOIS

CITY           SKY/WX    TMP DP  RH WIND       PRES   REMARKS
QUINCY         SUNNY     64  53  67 NW9       30.09R
GALESBURG*     SUNNY     62  53  71 W9        30.05R
MACOMB*        SUNNY     62  55  75 W8        30.08R
JACKSONVILLE*  SUNNY     64  54  70 W10       30.08R
PITTSFIELD*    SUNNY     64  54  69 NW8       30.10R
$$

ILZ028>032-037-038-041>044-048-051>054-059>061-241400-
CENTRAL ILLINOIS

CITY           SKY/WX    TMP DP  RH WIND       PRES   REMARKS
PONTIAC        SUNNY     64  60  84 W12       30.00R
BLOOMINGTON    SUNNY     64  56  75 W13       30.03R
DECATUR        SUNNY     66  56  70 W7        30.03R
PEORIA         SUNNY     64  55  72 NW9G18    30.03R
LACON*         SUNNY     64  55  74 NW9G17    30.01R
LINCOLN*       SUNNY     65  58  75 W6        30.04R
SPRINGFIELD    SUNNY     66  56  70 W10       30.06R
TAYLORVILLE    SUNNY     65  57  76 W9        30.05S
$$

ILZ033-039-045-046-055>057-062-063-241400-
EAST-CENTRAL ILLINOIS

CITY           SKY/WX    TMP DP  RH WIND       PRES   REMARKS
CHAMPAIGN      SUNNY     66  57  72 W10       30.01R
RANTOUL*       SUNNY     66  59  77 W9        30.00R
MATTOON        SUNNY     66  59  78 NW14      30.03R
PARIS*         SUNNY     65  60  83 W9        30.02R
$$

ILZ079-100>102-241400-
SOUTHWEST ILLINOIS

CITY           SKY/WX    TMP DP  RH WIND       PRES   REMARKS
ALTON          SUNNY     66  57  72 NW12      30.09R
BELLEVILLE     MOSUNNY   70  57  64 NW14      30.09R
CAHOKIA*       SUNNY     70  54  56 N10       30.09R
SPARTA*        MOSUNNY   67  58  73 NW5       30.09S
$$

ILZ064>066-069>071-074>076-080>082-084>086-088>090-092>094-241400-
SOUTH-CENTRAL ILLINOIS

CITY           SKY/WX    TMP DP  RH WIND       PRES   REMARKS
CARBONDALE     SUNNY     69  60  73 NW8       30.07R
CAIRO*         SUNNY     70  60  71 N9        30.07S
EFFINGHAM*     SUNNY     67  60  79 W8        30.07R
MARION         MOSUNNY   68  61  77 NW7       30.08R
MT. VERNON     MOSUNNY   67  59  75 W7        30.07R
CENTRALIA*     MOSUNNY   68  59  74 W10       30.07R
SALEM*         SUNNY     68  58  69 NW8       30.07R
METROPOLIS*    SUNNY     69  60  73 NW6       30.07S
$$

ILZ067-068-072-073-078-083-087-091-241400-
SOUTHEAST ILLINOIS

CITY           SKY/WX    TMP DP  RH WIND       PRES   REMARKS
LAWRENCEVILLE  SUNNY     68  59  73 NW9       30.04R
FLORA*         SUNNY     68  58  70 W10       30.06R
FAIRFIELD*     SUNNY     67  59  74 W3        30.05R
HARRISBURG*    SUNNY     69  62  77 NW7       30.07R
ROBINSON*      MOSUNNY   65  59  80 NW8       30.04R
CARMI*         SUNNY     69  61  75 NW8       30.05R
$$

ABBREVIATIONS USED IN REMARKS
   TC - TEMPERATURE IN CELSIUS
  WCI - WIND CHILL INDEX
   HX - HEAT INDEX
  VSB - VISIBILITY
$$





USA.gov is the U.S. government's official web portal to all federal, state and local government web resources and services.